Location: Recife
(8.0585°S, 34.8848°W)
Time: 11:05:40
(UTC-03:00)

Transit 2A - Pass Details

Date: 19 April 2026
Orbit: 594 x 950 km, 66.7° (Epoch: 14 May)

Event Time Altitude Azimuth Distance (km) Brightness Sun altitude
Rises 08:27:57 0° 324° (NW) 2,895 8.9 43.3°
Reaches altitude 10° 08:30:24 10° 315° (NW) 1,960 8.1 43.9°
Maximum altitude 08:34:22 34° 249° (WSW) 983 6.5 44.8°
Drops below altitude 10° 08:38:17 10° 183° (S) 1,930 8.0 45.7°
Sets 08:40:41 0° 174° (S) 2,843 8.8 46.2°
